User: anonymous   Login
Location: Unspecified
(0.0000°N, 0.0000°E)
Time: 20:00:59
(UTC+00:00)
Language:

UWE-2 - Orbit

View from above orbital plane
View from above orbital plane
View from above satellite
View from above satellite

Ground track
Ground track

The orbit data is extracted from the following two-line orbital elements,

1 35934U 09051D   18017.33859147  .00000067  00000-0  26282-4 0  9993
2 35934  98.5175 163.5029 0005957 338.9293  21.1657 14.55729426441523
Epoch (UTC): 17 January 2018 08:07:34
Eccentricity: 0.0005957
inclination: 98.5175°
perigee height: 703 km
apogee height: 711 km
right ascension of ascending node: 163.5029°
argument of perigee: 338.9293°
revolutions per day: 14.55729426
mean anomaly at epoch: 21.1657°
orbit number at epoch: 44152

The dashed part of the orbit path shows where the satellite is in the earth's shadow,  

DLR